Voltar ao catálogo

FENGYUN 1C DEB

AtivoLEO
NORAD 30705·DEBRIS·🇨🇳 China

Lançado May 10, 1999 de Taiyuan Satellite Launch Center

Loading…

Próximas Passagens (próximas 24 horas)

TLE

AtualizadoSource: Space-Track

Época: Sep 14, 2026, 00:47 UTC

1 30705U 99025ARP 26257.03300862  .00001239  00000-0  10363-2 0  9994
2 30705 102.1940  85.8604 0198188 348.9361 161.6565 13.82577499978126

Acompanhe FENGYUN 1C DEB em tempo real com AllMySat

Download on the App Store